Henderson, NV

11:58 PM PDT on May 27, 2017 (GMT -0700)
Henderson

Weather History for KHND - April, 2013

Change the Weather History Date:

Monday, April 22, 2013

  Actual Average (KLAS) Record (KLAS)
Temperature  
Mean Temperature 78 °F -  
Max Temperature 91 °F 79 °F 99 °F (2012)
Min Temperature 64 °F 52 °F 33 °F (1963)
Cooling Degree Days 12    
Growing Degree Days 28 (Base 50)    
Moisture  
Dew Point 20 °F    
Average Humidity 12    
Maximum Humidity 21    
Minimum Humidity 6    
Precipitation  
Precipitation 0.00 in - - ()
Sea Level Pressure  
Sea Level Pressure 29.78 in    
Wind  
Wind Speed 10 mph (SSW)    
Max Wind Speed 16 mph    
Max Gust Speed 22 mph    
Visibility 10 miles    
Events      
Averages and records for this station are not official NWS values.
T = Trace of Precipitation, MM = Missing Value Source: NWS Daily Summary

Daily Weather History Graph

Daily Weather History Graph

Search for Another Location

Airport or City:

Trip Planner

Search our weather history database for the weather conditions in past years. The results will help you decide how hot, cold, wet, or windy it might be!

Date:

Astronomy

Apr. 22, 2013 Rise Set
Actual Time 5:58 AM PDT 7:20 PM PDT
Civil Twilight 5:31 AM PDT 7:47 PM PDT
Nautical Twilight 4:59 AM PDT 8:19 PM PDT
Astronomical Twilight 4:25 AM PDT 8:53 PM PDT
Moon 4:19 PM PDT (4/22) 3:48 AM PDT (4/22)
Length of Visible Light 14h 15m
Length of Day
13h 22m
Waxing Gibbous, 88% of the Moon is Illuminated
Apr 22
Waxing Gibbous
Apr 25
Full
May 2
Last Quarter
May 9
New
May 17
First Quarter

Hourly Weather History & Observations

Time (PDT) Temp. Dew Point Humidity Pressure Visibility Wind Dir Wind Speed Gust Speed Precip Events Conditions
12:56 AM 72.0 °F 20.1 °F 14% 29.85 in 10.0 mi SW 16.1 mph - N/A   Clear
1:56 AM 70.9 °F 25.2 °F 18% 29.84 in 10.0 mi SSW 8.1 mph - N/A   Clear
2:56 AM 73.9 °F 24.1 °F 16% 29.83 in 10.0 mi SSE 10.4 mph - N/A   Clear
3:56 AM 68.9 °F 23.0 °F 18% 29.82 in 10.0 mi South 12.7 mph - 0.00 in   Clear
4:56 AM 68.0 °F 23.0 °F 18% 29.82 in 10.0 mi South 9.2 mph - N/A   Clear
5:56 AM 64.9 °F 22.1 °F 20% 29.84 in 10.0 mi SSW 10.4 mph - N/A   Clear
6:56 AM 65.8 °F 25.2 °F 21% 29.87 in 10.0 mi SSE 9.2 mph - N/A   Clear
7:56 AM 70.9 °F 24.1 °F 17% 29.89 in 10.0 mi Calm Calm - N/A   Clear
8:56 AM 75.9 °F 23.0 °F 14% 29.89 in 10.0 mi Calm Calm - N/A   Clear
9:56 AM 81.0 °F 20.1 °F 10% 29.88 in 10.0 mi Variable 4.6 mph - N/A   Clear
10:56 AM 81.9 °F 19.0 °F 10% 29.87 in 10.0 mi Variable 4.6 mph - N/A   Clear
11:56 AM 84.9 °F 20.1 °F 9% 29.84 in 10.0 mi ENE 6.9 mph - N/A   Clear
12:56 PM 86.0 °F 20.1 °F 9% 29.81 in 10.0 mi North 8.1 mph - N/A   Clear
1:56 PM 90.0 °F 18.1 °F 7% 29.77 in 10.0 mi East 8.1 mph - N/A   Clear
2:56 PM 91.9 °F 18.1 °F 7% 29.73 in 10.0 mi East 8.1 mph - N/A   Clear
3:56 PM 91.9 °F 15.1 °F 6% 29.70 in 10.0 mi Variable 3.5 mph - N/A   Clear
4:56 PM 90.9 °F 18.1 °F 7% 29.68 in 10.0 mi North 12.7 mph 16.1 mph N/A   Clear
5:56 PM 90.0 °F 18.1 °F 7% 29.68 in 10.0 mi WNW 5.8 mph - N/A   Clear
6:56 PM 88.0 °F 16.2 °F 7% 29.67 in 10.0 mi West 10.4 mph - N/A   Clear
7:56 PM 84.9 °F 19.0 °F 9% 29.67 in 10.0 mi WSW 10.4 mph - N/A   Clear
8:56 PM 79.0 °F 21.0 °F 12% 29.69 in 10.0 mi SSW 9.2 mph - N/A   Clear
9:56 PM 77.0 °F 21.0 °F 12% 29.70 in 10.0 mi South 9.2 mph - N/A   Clear
10:56 PM 77.0 °F 20.1 °F 12% 29.72 in 10.0 mi Variable 5.8 mph - N/A   Clear
11:56 PM 77.0 °F 8.1 °F 7% 29.74 in 10.0 mi North 16.1 mph 21.9 mph N/A   Clear